Regional Weather Roundup
Issued by NWS

Home | Current Version | Previous Version | Text Only | Print | Product List | Glossary On
Versions: 1 2 3 4 5 6 7 8 9 10 11 12 13 14 15 16 17 18 19 20 21 22 23 24 25 26 27 28 29 30 31 32 33 34 35 36 37 38 39 40 41 42 43 44 45 46 47 48 49 50
000
ASHW40 PHFO 260743
RWRHI

WEATHER ROUNDUP FOR HAWAII
NATIONAL WEATHER SERVICE HONOLULU HI
900 PM HST THU DEC 25 2014

THIS IS AN AUTOMATED REPORT THAT HAS NOT BEEN QUALITY CONTROLLED.

NOTE..."FAIR" INDICATES FEW OR NO CLOUDS BELOW 12,000 FEET WITH NO
SIGNIFICANT WEATHER AND/OR OBSTRUCTIONS TO VISIBILITY.

* - THESE SITES REPORT LIMITED FIELDS

HIZ001>004-260800-
KAUAI-NIIHAU-

CITY           SKY/WX    TMP DP  RH WIND       PRES   REMARKS
LIHUE APT      PTCLDY    69  59  70 W6        29.82R
PORT ALLEN*      N/A     72 N/A N/A NW13        N/A
POIPU*           N/A     64 N/A N/A NW3         N/A
PRINCEVILLE*     N/A     70 N/A N/A MISG        N/A
KOKOLE POINT*  NOT AVBL
MOLOAA DAIRY*  NOT AVBL
WAIMEA HTS*      N/A     68  55  64 NW3G12      N/A
PUU OPAE*        N/A     61  57  88 NW13G18     N/A
PUU LUA*       NOT AVBL
MAKAHA RIDGE*  NOT AVBL
$$

HIZ005>011-260800-
OAHU-

CITY           SKY/WX    TMP DP  RH WIND       PRES   REMARKS
HONOLULU       CLEAR     74  65  73 N8        29.81R
KALAELOA       CLEAR     65  61  87 E3        29.82R
KANEOHE MCB    PTCLDY    72  65  78 NW3       29.81R
WHEELER FIELD  FAIR      67  64  88 NW10      29.81S
BELLOWS*         N/A    N/A N/A N/A W3          N/A
KAHUKU*          N/A    N/A N/A N/A W3G9        N/A
WHEELER*       NOT AVBL
WAIANAE HARBOR NOT AVBL
DILLINGHAM*      N/A     72  64  78 W3G12       N/A
KAHUKU TRN*      N/A     68  61  77 W5G17       N/A
KAWAILOA*        N/A     66  63  88 NW3G13      N/A
KII*             N/A     72  66  83 W10G16      N/A
MAKUA RANGE*     N/A     72  64  78 SE3         N/A
OAHU FOREST NW   N/A     61 -15   4 CALM        N/A
SCHOFIELD BRK*   N/A     66  63  88 MISG        N/A
SCHOFIELD S*   NOT AVBL
WAIANAE VLY*     N/A     66  61  82 N5G14       N/A
KUAOKALA*        N/A    N/A N/A N/A CALM        N/A
HONOULIUULI*   NOT AVBL
MOKUOLOE IS*     N/A    N/A N/A N/A MISG        N/A
PALEHUA*         N/A     73  63  68 CALM        N/A
WAIAWA PHB*    NOT AVBL
$$

HIZ012>013-260800-
MOLOKAI-

CITY           SKY/WX    TMP DP  RH WIND       PRES   REMARKS
MOLOKAI AIRPT  LGT RAIN  68  66  93 SW3       29.83R
KALAUPAPA      NOT AVBL
MAKAPULAPAI*     N/A     70  66  88 SW3         N/A
MOLOKAI 1*       N/A     61  61 100 N1          N/A
PUU ALII*        N/A     56  56  99 W1          N/A
$$

HIZ016-260800-
KAHOOLAWE-

CITY           SKY/WX    TMP DP  RH WIND       PRES   REMARKS
KAHOOLAWE*       N/A     66 N/A N/A NW5         N/A
HAKIOAWA*        N/A     67  63  88 MISG      30.24R
HONOKANAIA*      N/A     75  65  71 W12G17    29.83R
KANELOA*         N/A     70  64  83 NW9       29.03R
KEALIALALO*    NOT AVBL
LUA MAKIKA*    NOT AVBL
$$

HIZ014>015-260800-
LANAI-

CITY           SKY/WX    TMP DP  RH WIND       PRES   REMARKS
LANAI CITY     MOCLDY    66  66 100 W5        29.87R
LANAI 1*         N/A     64  64 100 NW2         N/A
$$

HIZ017>028-260800-
MAUI-

CITY           SKY/WX    TMP DP  RH WIND       PRES   REMARKS
KAHULUI        CLEAR     68  63  84 S5        29.81R
KAPALUA-W MAUI NOT AVBL
HANA AIRPORT   CLEAR     64  63  94 CALM      29.84R
HANA*            N/A     66 N/A N/A S3          N/A
HALEAKALA SUMM   N/A     46   7  19 W21G38      N/A
MAALAEA BAY*   NOT AVBL
HALEAKALA*     NOT AVBL
KAUPO GAP*       N/A     52  43  71 N7G13       N/A
KULA 1*          N/A    N/A N/A N/A E3          N/A
$$

HIZ023>026-260800-
BIG ISLAND OF HAWAII COAST AND LOWER SLOPES-

CITY           SKY/WX    TMP DP  RH WIND       PRES   REMARKS
KAILUA KONA    PTCLDY    74  63  68 CALM      29.81R
HILO           CLOUDY    71  67  87 SW5       29.80R
HONOKAA*       NOT AVBL
KAWAIHAE MWT*    N/A     73 N/A N/A E1          N/A
KAWAIHAE*        N/A     73 N/A N/A E2          N/A
SOUTH POINT*     N/A     68 N/A N/A W15G22      N/A
UPOLU AIRPORT*   N/A    N/A N/A N/A S1          N/A
KAMUELA*       CLOUDY    61  59  94 SW6       29.93R
HAKALAU*         N/A     45  45 100 SW3         N/A
KALOKO-HONOKO*   N/A     72  61  68 NE6       29.81
PALI 2*          N/A     61  57  88 N12G17      N/A
KEALAKOMO*       N/A     79  72  78 S3G15       N/A
KAUPULEHU*       N/A     64  55  72 SE7         N/A
KAPAPALA*        N/A     62  57  83 CALM        N/A
LOWER KAHUKU*    N/A     55  54  94 N2          N/A
PUHE CS*       NOT AVBL
PUHO CS*         N/A     72  61  67 E3          N/A
PTA KEAMUKU*     N/A     57  57 100 CALM        N/A
WAIKOLOA*        N/A     66  59  77 SE3         N/A
$$

HIZ027>028-260800-
BIG ISLAND OF HAWAII INTERIOR AND SUMMMITS-

CITY           SKY/WX    TMP DP  RH WIND       PRES   REMARKS
BRADSHAW FIELD CLOUDY    51  17  26 N5        30.11S
MK VISITOR CEN NOT AVBL
MAUNA KEA*       N/A     34  -9  15 NW53        N/A  WCI  17
MAUNA LOA*       N/A     41  -6  13 MISG        N/A
MAUNA LOA 1*   NOT AVBL
PTA KIPUKA*      N/A     48  43  81 SE7         N/A
PTA RANGE 17*    N/A     48  46  93 CALM        N/A
PTA WEST*        N/A     54  50  87 SE5         N/A
NENE CABIN*      N/A    N/A N/A N/A NW12G18     N/A
AHUMOA*          N/A     52  11  19 S10G16      N/A
PTA PORTABLE*  NOT AVBL
PUU MALI*      NOT AVBL
$$

HIC003-260800-
NORTHWEST ISLANDS-

CITY           SKY/WX    TMP DP  RH WIND       PRES   REMARKS
MIDWAY ISLAND  PTCLDY    70  68  94 CALM      30.07R
MIDWAY NOS*    NOT AVBL
FRENCH FRIGATE NOT AVBL
$$

PHZ110>124-180-260800-
BUOY REPORTS

STATION/POSITION TIME  TEMP    WIND        PRES    WAVE   SWELL
                       AIR SEA DIR/SP/G            HT/PER HT/DIR
                 (UTC) (F)     (DEG/KT/KT) (MB)    (FT/S) (FT/D)
BUOY 51001       NOT AVBL
BUOY 51101       0700   70 76  310/ 23/ 29 1010.1R  11/10   8/ 40
BUOY 51100       0700   74 74  250/ 17/ 21 1006.0R
BUOY 51003       0700   75 78   10/ 12/ 16 1010.4R   8/11   7
BUOY 51004       0606   77 78  210/  2/  4 1009.8    9/ 9   8/ 60
BARBERS PT BUOY  NOT AVBL
WAIMEA BAY BUOY  0700      77                N/A     8/11   3/ 20
KAILUA BAY BUOY  0700      76                N/A     8/11   5/ 60
LANAI BUOY       0700      78                N/A     3/11   2/230
BARBERS PT 2     0700      77                N/A     4/12   2/260
PAUWELA MAUI     0700      77                N/A     9/10   5/ 20
HILO             0700      78                N/A     9/11   5/ 40
KANEOHE BAY BUOY 0700      76                N/A     6/11   3/ 30
HANALEI KAUAI    NOT AVBL
KAHULUI HARBOR   0700   70 76  170/  2/  3 1009.3R
HONOLULU HARBOR  0700   73     350/  3/  5 1009.7S
KILO NALU        NOT AVBL
HILO HARBOR      0700   72     220/  1/  2 1008.6R
MOKUOLOE         0700   69 76  220/  1/  2 1009.7R
NAWILIWILI       0700      78                N/A
WHOTS BUOY       NOT AVBL
BUOY 51028       NOT AVBL
$$

......................KEY........................................
  SKY/WX - SKY CONDITIONS/PRESENT WEATHER
  TMP    - TEMPERATURE IN FAHRENHEIT
  DWPT   - DEWPOINT IN FAHRENHEIT
  RH     - RELATIVE HUMIDITY IN PERCENT
  WIND   - DIRECTION AND SPEED /MPH FOR ISLANDS...KTS FOR BUOYS/
  PRES   - MEAN SEA LEVEL PRESSURE IN INCHES OF HG
  VSB    - VISIBILITY IN MILES
  HX     - HEAT INDEX
  WCI    - WIND CHILL INDEX
  VRB    - VARIABLE WIND DIRECTION
  N/A    - NOT AVAILABLE


USA.gov is the U.S. government's official web portal to all federal, state and local government web resources and services.